Location: Kitchener
(43.4500°N, 80.5000°W)
Time: 04:24:03
(UTC-05:00)

ATLAS 5 CENTAUR R/B - Visible Passes

Search period start: 25 February 2018 00:00
Search period end: 07 March 2018 00:00
Orbit: 604 x 1056 km, 63.4° (Epoch: 23 February)

Date Brightness Start Highest point End Pass type
(mag) Time Alt. Az. Time Alt. Az. Time Alt. Az.
25 Feb 3.8 04:18:04 18° SE 04:19:23 20° ESE 04:22:53 10° ENE visible
25 Feb 2.0 05:59:39 13° WSW 06:03:33 52° NW 06:08:29 10° NNE visible
26 Feb 4.0 04:00:16 19° ESE 04:00:25 19° ESE 04:03:45 10° ENE visible
26 Feb 1.9 05:41:51 23° WSW 05:44:31 55° NW 05:49:30 10° NNE visible
27 Feb 4.2 03:42:20 17° E 03:42:20 17° E 03:44:36 10° ENE visible
27 Feb 1.8 05:23:55 38° WSW 05:25:30 59° NW 05:30:30 10° NNE visible
28 Feb 4.5 03:24:17 13° E 03:24:17 13° E 03:25:25 10° ENE visible
28 Feb 1.7 05:05:51 56° W 05:06:29 63° NW 05:11:30 10° NNE visible
01 Mar 4.8 03:06:09 10° ENE 03:06:09 10° ENE 03:06:14 10° ENE visible
01 Mar 1.7 04:47:42 66° NNW 04:47:42 66° NNW 04:52:30 10° NNE visible
02 Mar 2.2 04:29:29 53° NNE 04:29:29 53° NNE 04:33:30 10° NNE visible
02 Mar 3.7 06:11:07 10° WNW 06:14:10 16° NNW 06:17:26 10° N visible
03 Mar 2.9 04:11:12 39° NNE 04:11:12 39° NNE 04:14:30 10° NE visible
03 Mar 3.6 05:52:45 13° WNW 05:55:06 17° NNW 05:58:29 10° NNE visible
04 Mar 3.4 03:52:52 30° NNE 03:52:52 30° NNE 03:55:30 10° NE visible
04 Mar 3.5 05:34:24 15° NW 05:36:02 18° NNW 05:39:31 10° NNE visible
05 Mar 3.9 03:34:29 24° NE 03:34:29 24° NE 03:36:29 10° NE visible
05 Mar 3.5 05:16:01 17° NW 05:16:59 18° NNW 05:20:33 10° NNE visible
06 Mar 4.3 03:16:03 19° NE 03:16:03 19° NE 03:17:28 10° NE visible
06 Mar 3.5 04:57:36 19° NW 04:57:55 19° NNW 05:01:35 10° NNE visible
